Location: Blairvadach
(56.2780°N, 6.9720°W)
Time: 07:51:59
(UTC+01:00)

OTV 5 (USA 277) - Pass Details

Date: 24 April 2019
Orbit: 310 x 325 km, 54.5° (Epoch: 08 May)

Event Time Altitude Azimuth Distance (km) Brightness Sun altitude
Rises 22:08:36 0° 212° (SSW) 2,029 ? -9.5°
Reaches altitude 10° 22:10:59 10° 189° (S) 1,204 ? -9.8°
Enters shadow 22:12:40 16° 150° (SSE) 926 ? -9.9°
